Regional Weather Roundup
Issued by NWS Little Rock, AR

Home | Current Version | Previous Version | Text Only | Print | Product List | Glossary On
Versions: 1 2 3 4 5 6 7 8 9 10 11 12 13 14 15 16 17 18 19 20 21 22 23 24 25 26 27 28 29 30 31 32 33 34 35 36 37 38 39 40 41 42 43 44 45 46 47 48
000
ASUS44 KLZK 041705
RWRLZK

WEATHER ROUNDUP FOR ARKANSAS
NATIONAL WEATHER SERVICE LITTLE ROCK AR
1200 PM CDT MON MAY 04 2015

NOTE: "FAIR" INDICATES FEW OR NO CLOUDS BELOW 12,000 FEET WITH NO
SIGNIFICANT WEATHER AND/OR OBSTRUCTIONS TO VISIBILITY.

ARZ001-003-010-029-041800-
NORTHWEST ARKANSAS

CITY           SKY/WX    TMP DP  RH WIND       PRES   REMARKS
FAYETTEVILLE   PTSUNNY   74  63  68 S18       30.16S
FORT SMITH     PTSUNNY   77  60  55 SW8       30.15R
HARRISON       MOSUNNY   78  61  55 S13       30.17S
BENTONVILLE    PTSUNNY   75  61  60 S10G21    30.17R
ROGERS         CLOUDY    75  62  64 SW14      30.17R
SILOAM SPGS    PTSUNNY   75  61  60 S17G24    30.17R
HIGHFILL       PTSUNNY   77  62  59 SW12      30.16R
SPRINGDALE     PTSUNNY   75  61  60 SW13G24   30.18R
$$

ARZ004-005-016-041800-
NORTH CENTRAL ARKANSAS

CITY           SKY/WX    TMP DP  RH WIND       PRES   REMARKS
BATESVILLE     SUNNY     81  57  44 S9G17     30.18S
FLIPPIN        SUNNY     81  55  41 S9        30.15S
MTN HOME       SUNNY     79  57  46 SW15G26   30.17S
$$

ARZ040-041-041800-
WEST CENTRAL ARKANSAS

CITY           SKY/WX    TMP DP  RH WIND       PRES   REMARKS
MENA           SUNNY     79  61  53 S8        30.20S
MOUNT IDA      MOSUNNY   79  57  46 VRB6      30.17R
$$

ARZ009-017-025-026-028-041800-
NORTHEAST ARKANSAS

CITY           SKY/WX    TMP DP  RH WIND       PRES   REMARKS
CORNING          N/A     82  57  42 S18       30.18F
JONESBORO      SUNNY     79  60  52 S13       30.19S
NEWPORT        SUNNY     83  59  44 SW13G18   30.20S
WALNUT RIDGE   MOSUNNY   81  57  44 S13G20    30.18F
BLYTHEVILLE    SUNNY     82  59  45 S12G18    30.21S
NW BLYTHEVILLE MOSUNNY   81  57  44 S12G18    30.20F
$$

ARZ022-023-033-042-044-041800-
CENTRAL ARKANSAS

CITY           SKY/WX    TMP DP  RH WIND       PRES   REMARKS
LITTLE ROCK    MOSUNNY   81  54  39 S10       30.19S
N LITTLE ROCK  MOSUNNY   79  60  52 S10G16    30.19S
JACKSONVILLE   MOSUNNY   80  59  47 SW10      30.19S
SEARCY         SUNNY     81  61  50 S14       30.21R
HOT SPRINGS    SUNNY     79  56  45 SW9       30.20R
RUSSELLVILLE   SUNNY     77  61  57 S7        30.17F
CLINTON        PTSUNNY   77  59  53 SW9       30.20R
$$

ARZ036-041800-
EAST ARKANSAS

CITY           SKY/WX    TMP DP  RH WIND       PRES   REMARKS
WEST MEMPHIS   SUNNY     80  61  52 S13       30.21S
$$

ARZ050-053-066-070-073-041800-
SOUTHWEST ARKANSAS

CITY           SKY/WX    TMP DP  RH WIND       PRES   REMARKS
ARKADELPHIA    FAIR      80  63  56 VRB3      30.20S
CAMDEN         SUNNY     81  55  41 CALM      30.19F
TEXARKANA      SUNNY     78  58  49 SE6       30.19S
EL DORADO      SUNNY     79  56  45 VRB6      30.19F
DE QUEEN       MOSUNNY   76  60  57 CALM      30.16S
$$

ARZ056-057-069-041800-
SOUTHEAST ARKANSAS

CITY           SKY/WX    TMP DP  RH WIND       PRES   REMARKS
PINE BLUFF     SUNNY     80  56  43 S8        30.20S
STUTTGART      MOSUNNY   81  61  50 CALM      30.22R
MONTICELLO     SUNNY     78  57  48 CALM      30.21S

$$




USA.gov is the U.S. government's official web portal to all federal, state and local government web resources and services.